[[{"header":{"parameterUnit":"m.s-1","parameterCategory":1,"la1":30.2991,"la2":30.254,"lo1":-89.0895,"lo2":-89.0444,"dy":0.0017,"dx":0.0017,"nx":28,"ny":28,"refTime":"2025-04-12T21:00:00:Z","depth":0,"parameterNumber":2,"parameterNumberName":"U-component_of_WINDS"},"data":[0,0,0,0,0,0,0,0,0,0,0,0,0,0,0,0,0,0,0,0,0,0,0,0,0,0,0,0,0,0,0,0,0,0,0,0,0,0,0,0,0,0,0,0,0,0,0,0,0,0,0,0,0,0,0,0,0,0,-1.735,-1.735,0,-1.7335,-1.7335,-1.7335,-1.7243,-1.7241,-1.7238,-1.7236,-1.7225,-1.7226,-1.7228,0,0,0,0,0,0,0,0,0,0,0,0,0,-1.7302,-1.7303,-1.735,-1.735,-1.735,-1.7335,-1.7335,-1.7335,-1.7243,-1.724,-1.7238,-1.7235,-1.7224,-1.7226,-1.7228,0,0,0,0,0,0,0,0,0,0,0,0,0,-1.7309,-1.7304,-1.735,-1.7302,-1.7298,-1.7335,-1.7335,-1.7334,-1.7244,-1.724,-1.7237,-1.7234,-1.7223,-1.7226,-1.7229,-1.7312,0,0,-1.7237,-1.7238,0,0,0,0,0,0,0,0,-1.7309,-1.7311,-1.7309,-1.7305,-1.7301,-1.7287,-1.7313,-1.7327,-1.7245,-1.7264,-1.7236,-1.7232,-1.7248,-1.7249,-1.7253,-1.7311,-1.7311,-1.7237,-1.7238,-1.724,-1.724,0,0,0,0,0,0,0,-1.7308,-1.7311,-1.7344,-1.7309,-1.7304,-1.7282,-1.7279,-1.7316,-1.7275,-1.7262,-1.7256,-1.7255,-1.7245,-1.7251,-1.7252,-1.7311,-1.7237,-1.7239,-1.7241,-1.7242,-1.7436,-1.7439,0,0,0,0,0,0,-1.7314,-1.7311,-1.7345,-1.7344,-1.7296,-1.7286,-1.7283,-1.7295,-1.7275,-1.7268,-1.7258,-1.7251,-1.7248,-1.7249,-1.7252,-1.7348,-1.724,-1.7242,-1.7244,-1.7432,-1.7436,-1.744,0,0,0,0,0,0,-1.7313,-1.7318,-1.7345,-1.7325,-1.7327,-1.729,-1.7305,-1.7296,-1.7302,-1.7271,-1.7264,-1.7271,-1.7246,-1.7248,-1.7297,-1.7346,-1.7243,-1.7246,-1.7428,-1.7433,-1.7438,-1.7541,0,0,0,0,0,0,-1.7312,-1.7318,-1.7349,-1.7327,-1.7329,-1.7391,-1.7308,-1.7299,-1.7306,-1.7297,-1.7282,-1.7276,-1.7243,-1.7294,-1.73,-1.7348,-1.7248,-1.7423,-1.743,-1.7437,-1.7533,-1.7549,-1.7563,0,0,0,0,0,-1.7311,-1.738,-1.7351,-1.7356,-1.7366,-1.7394,-1.7395,-1.7355,-1.7311,-1.7342,-1.7322,-1.7276,-1.734,-1.73,-1.7306,-1.7355,-1.742,-1.7428,-1.7436,-1.7526,-1.7546,-1.7563,0,0,0,0,0,0,-1.741,-1.7376,-1.7344,-1.7407,-1.7404,-1.7378,-1.7416,-1.7377,-1.7387,-1.7378,-1.7328,-1.7326,-1.7383,-1.7374,-1.733,-1.7435,-1.7372,-1.7382,-1.7439,-1.7457,-1.7472,-1.7473,-1.725,0,0,0,0,0,-1.7439,-1.7463,-1.7432,-1.7491,-1.7491,-1.7454,-1.7464,-1.7433,-1.7428,-1.7427,-1.7411,-1.7409,-1.7428,-1.7442,-1.7458,-1.7531,-1.7526,-1.7568,-1.7583,-1.7595,-1.7605,-1.7642,-1.7661,-1.7467,-1.7466,-1.7466,0,0,-1.75,-1.7484,-1.7502,-1.751,-1.7504,-1.7531,-1.7453,-1.7485,-1.7505,-1.7432,-1.7477,-1.7465,-1.746,-1.7521,-1.7548,-1.7516,-1.7657,-1.7605,-1.7616,-1.7618,-1.7653,-1.7671,-1.7687,-1.7472,-1.7471,-1.747,0,0,-1.7624,-1.7614,-1.7662,-1.7657,-1.7648,-1.7622,-1.7634,-1.7614,-1.7602,-1.7646,-1.7592,-1.7615,-1.765,-1.7648,-1.7651,-1.7773,-1.7732,-1.778,-1.7858,-1.7896,-1.7911,-1.7924,-1.7968,-1.7985,-1.7789,-1.7789,-1.7789,0,-1.7701,-1.7738,-1.7692,-1.7727,-1.7732,-1.7665,-1.7714,-1.7711,-1.7709,-1.7714,-1.7678,-1.7719,-1.771,-1.777,-1.78,-1.7805,-1.7817,-1.7782,-1.7912,-1.7925,-1.7937,-1.7978,-1.7995,-1.7795,-1.7794,-1.7794,-1.7793,0,-1.7834,-1.786,-1.79,-1.7897,-1.7906,-1.7948,-1.7909,-1.7924,-1.7892,-1.7871,-1.7917,-1.7904,-1.7916,-1.7928,-1.7897,-1.7984,-1.7964,-1.7921,-1.7857,-1.7962,-1.8,-1.8016,-1.7804,-1.7801,-1.78,-1.7798,0,0,-1.8022,-1.7991,-1.8007,-1.8004,-1.7989,-1.8009,-1.8047,-1.8057,-1.8072,-1.8072,-1.8103,-1.8133,-1.8092,-1.8097,-1.8065,-1.8098,-1.8196,-1.8051,-1.805,-1.8079,-1.829,-1.8323,-1.8342,-1.8168,-1.8171,-1.8173,-1.8291,0,-1.8141,-1.8204,-1.8163,-1.8233,-1.8257,-1.8193,-1.8226,-1.8221,-1.8202,-1.822,-1.8199,-1.8221,-1.8166,-1.8168,-1.8198,-1.8178,-1.8238,-1.8169,-1.8198,-1.8199,-1.8202,-1.8362,-1.8397,-1.8509,-1.8305,-1.8308,-1.831,0,-1.829,-1.8294,-1.8366,-1.8344,-1.8353,-1.8384,-1.8389,-1.8407,-1.84,-1.8383,-1.8387,-1.8347,-1.8384,-1.8321,-1.8371,-1.8325,-1.8334,-1.8326,-1.833,-1.8332,-1.8262,-1.8369,-1.8544,-1.8561,-1.8332,-1.8331,-1.8329,0,-1.842,-1.8444,-1.849,-1.849,-1.8466,-1.8489,-1.848,-1.8469,-1.8478,-1.8483,-1.8488,-1.8498,-1.8504,-1.8513,-1.8477,-1.8434,-1.8533,-1.8466,-1.8521,-1.8522,-1.8546,-1.8545,-1.8725,-1.8551,-1.8551,-1.855,-1.855,0,-1.8558,-1.8605,-1.8548,-1.8577,-1.8627,-1.8579,-1.8631,-1.8615,-1.8606,-1.8631,-1.8576,-1.8601,-1.8552,-1.8572,-1.8544,-1.859,-1.8593,-1.8582,-1.8574,-1.8587,-1.8589,-1.8594,-1.8585,-1.8555,-1.8554,-1.8553,-1.8552,0,-1.8713,-1.8677,-1.8723,-1.8695,-1.869,-1.8728,-1.8705,-1.8731,-1.8707,-1.8739,-1.8744,-1.8708,-1.8729,-1.8693,-1.871,-1.8691,-1.8756,-1.8736,-1.8758,-1.8752,-1.881,-1.8805,-1.9,-1.9023,-1.8834,-1.8835,-1.8837,0,-1.8805,-1.8839,-1.8814,-1.8826,-1.882,-1.884,-1.8848,-1.8801,-1.8812,-1.8805,-1.8832,-1.8847,-1.8858,-1.8894,-1.887,-1.8882,-1.8862,-1.893,-1.8864,-1.8876,-1.8864,-1.8863,-1.8866,-1.8944,-1.8946,-1.8948,-1.8949,0,-1.897,-1.895,-1.8962,-1.8969,-1.8979,-1.8982,-1.8981,-1.8994,-1.8945,-1.896,-1.8979,-1.8987,-1.9003,-1.902,-1.9026,-1.9018,-1.8976,-1.897,-1.8983,-1.8998,-1.9009,-1.9004,-1.8796,-1.8966,-1.8964,-1.8963,-1.8962,-1.8962,-1.9096,-1.9123,-1.911,-1.9125,-1.9119,-1.9119,-1.9142,-1.912,-1.9135,-1.9143,-1.9115,-1.9141,-1.9132,-1.9136,-1.9132,-1.9153,-1.9123,-1.9143,-1.9148,-1.9153,-1.9162,-1.9005,-1.9154,-1.9153,-1.9153,-1.9152,-1.9152,0,-1.9259,-1.9247,-1.9261,-1.9261,-1.9273,-1.923,-1.9227,-1.9241,-1.9264,-1.9258,-1.9268,-1.9291,-1.9306,-1.9282,-1.9294,-1.9315,-1.9296,-1.932,-1.9318,-1.9317,-1.9188,-1.9175,-1.9335,-1.9334,-1.9334,-1.9334,-1.9334,-1.9334,-1.9346,-1.9389,-1.9367,-1.9407,-1.9394,-1.9418,-1.9419,-1.942,-1.9414,-1.9441,-1.9453,-1.9437,-1.9424,-1.9434,-1.9446,-1.9439,-1.9446,-1.9477,-1.9463,-1.9344,-1.9326,-1.9309,-1.9297,-1.9479,-1.9479,-1.959,-1.9591,-1.9592]},{"header":{"parameterUnit":"m.s-1","parameterCategory":1,"la1":30.2991,"la2":30.254,"lo1":-89.0895,"lo2":-89.0444,"dy":0.0017,"dx":0.0017,"nx":28,"ny":28,"refTime":"2025-04-12T21:00:00:Z","depth":0,"parameterNumber":3,"parameterNumberName":"V-component_of_WINDS"},"data":[0,0,0,0,0,0,0,0,0,0,0,0,0,0,0,0,0,0,0,0,0,0,0,0,0,0,0,0,0,0,0,0,0,0,0,0,0,0,0,0,0,0,0,0,0,0,0,0,0,0,0,0,0,0,0,0,0,0,-2.6666,-2.6667,0,-2.6771,-2.6772,-2.6773,-2.6753,-2.6751,-2.6749,-2.6747,-2.6852,-2.6856,-2.6861,0,0,0,0,0,0,0,0,0,0,0,0,0,-2.6444,-2.6448,-2.6666,-2.6667,-2.6668,-2.6771,-2.6772,-2.6774,-2.6753,-2.6751,-2.6749,-2.6747,-2.685,-2.6856,-2.6861,0,0,0,0,0,0,0,0,0,0,0,0,0,-2.6544,-2.6449,-2.6665,-2.6671,-2.6672,-2.6771,-2.6772,-2.6774,-2.6754,-2.6751,-2.6748,-2.6746,-2.6849,-2.6855,-2.6862,-2.6961,0,0,-2.6883,-2.6886,0,0,0,0,0,0,0,0,-2.6538,-2.6552,-2.6668,-2.667,-2.6672,-2.6746,-2.6732,-2.6837,-2.6755,-2.6723,-2.6747,-2.6744,-2.6819,-2.6828,-2.6854,-2.6966,-2.697,-2.6883,-2.6888,-2.6891,-2.6892,0,0,0,0,0,0,0,-2.6531,-2.6547,-2.6707,-2.667,-2.6673,-2.6667,-2.6678,-2.6752,-2.6785,-2.6725,-2.6724,-2.6737,-2.6819,-2.6847,-2.6856,-2.6972,-2.6883,-2.6889,-2.6894,-2.6896,-2.717,-2.7173,0,0,0,0,0,0,-2.6523,-2.6541,-2.6704,-2.671,-2.6597,-2.6673,-2.6685,-2.6725,-2.6784,-2.6791,-2.6739,-2.6736,-2.6837,-2.6848,-2.686,-2.6979,-2.689,-2.6897,-2.6901,-2.7167,-2.717,-2.7174,0,0,0,0,0,0,-2.6518,-2.6538,-2.67,-2.6626,-2.6646,-2.668,-2.6725,-2.6729,-2.6757,-2.6795,-2.6801,-2.6762,-2.6835,-2.685,-2.6936,-2.6983,-2.69,-2.6906,-2.7163,-2.7168,-2.7172,-2.7219,0,0,0,0,0,0,-2.6512,-2.6536,-2.6575,-2.6627,-2.665,-2.6775,-2.6728,-2.6733,-2.6769,-2.6765,-2.6818,-2.6824,-2.6834,-2.6926,-2.6943,-2.6991,-2.6911,-2.7159,-2.7165,-2.7171,-2.7214,-2.7225,-2.7235,0,0,0,0,0,-2.6504,-2.6583,-2.6577,-2.6596,-2.6699,-2.6778,-2.6791,-2.6803,-2.6773,-2.6812,-2.6836,-2.6822,-2.6975,-2.6935,-2.6954,-2.7004,-2.7156,-2.7163,-2.717,-2.7209,-2.7223,-2.7235,0,0,0,0,0,0,-2.6534,-2.659,-2.6584,-2.6682,-2.6726,-2.6775,-2.6824,-2.6817,-2.6869,-2.6863,-2.6874,-2.6886,-2.6973,-2.6997,-2.6952,-2.7103,-2.7061,-2.7072,-2.7084,-2.7098,-2.7108,-2.71,-2.6917,0,0,0,0,0,-2.6553,-2.6613,-2.6658,-2.6741,-2.6763,-2.679,-2.6825,-2.683,-2.6875,-2.6893,-2.6923,-2.6967,-2.7025,-2.7062,-2.7117,-2.7217,-2.7228,-2.7261,-2.7271,-2.728,-2.7289,-2.7344,-2.7359,-2.7197,-2.7197,-2.7197,0,0,-2.6591,-2.6629,-2.6666,-2.6748,-2.6782,-2.6844,-2.6805,-2.6872,-2.6918,-2.6902,-2.6986,-2.701,-2.7059,-2.7152,-2.7195,-2.7175,-2.7336,-2.7289,-2.7296,-2.7301,-2.7353,-2.7368,-2.7381,-2.7202,-2.7201,-2.7201,0,0,-2.6692,-2.6727,-2.68,-2.6835,-2.6888,-2.6905,-2.6923,-2.6973,-2.6989,-2.7073,-2.7063,-2.7117,-2.7216,-2.7251,-2.7282,-2.7397,-2.7386,-2.7414,-2.747,-2.7522,-2.7535,-2.7546,-2.7587,-2.7602,-2.7424,-2.7424,-2.7424,0,-2.6732,-2.6826,-2.6837,-2.6906,-2.6942,-2.6932,-2.7005,-2.7038,-2.7106,-2.7131,-2.7108,-2.7232,-2.7265,-2.7366,-2.7394,-2.7419,-2.7439,-2.7409,-2.7532,-2.7544,-2.7555,-2.7594,-2.7609,-2.7427,-2.7427,-2.7426,-2.7426,0,-2.6873,-2.6938,-2.699,-2.7057,-2.7099,-2.7169,-2.719,-2.7231,-2.7232,-2.7252,-2.7337,-2.7376,-2.7438,-2.7463,-2.7464,-2.7564,-2.755,-2.753,-2.7488,-2.7573,-2.761,-2.7625,-2.7432,-2.743,-2.743,-2.7429,0,0,-2.6996,-2.7069,-2.7088,-2.7119,-2.7176,-2.7226,-2.7295,-2.7358,-2.7393,-2.744,-2.7498,-2.7582,-2.7564,-2.7599,-2.7604,-2.765,-2.7738,-2.7624,-2.7625,-2.7644,-2.7851,-2.7866,-2.7883,-2.7731,-2.7734,-2.7737,-2.7847,0,-2.7103,-2.7227,-2.7239,-2.735,-2.7409,-2.7401,-2.7461,-2.7503,-2.7522,-2.7575,-2.7596,-2.7656,-2.7627,-2.7649,-2.7694,-2.7718,-2.778,-2.771,-2.7785,-2.7787,-2.7773,-2.7903,-2.7919,-2.8021,-2.7861,-2.7864,-2.7865,0,-2.7244,-2.7296,-2.7413,-2.7463,-2.7488,-2.7542,-2.7601,-2.7652,-2.7698,-2.7709,-2.7749,-2.7748,-2.7818,-2.7774,-2.787,-2.7823,-2.7854,-2.787,-2.7874,-2.7882,-2.7832,-2.7913,-2.8054,-2.8069,-2.7888,-2.7886,-2.7885,0,-2.7322,-2.7422,-2.7505,-2.7531,-2.7591,-2.7629,-2.7655,-2.7699,-2.7736,-2.7786,-2.781,-2.7868,-2.7899,-2.7943,-2.7958,-2.7924,-2.8054,-2.8011,-2.8064,-2.8064,-2.8092,-2.809,-2.824,-2.8112,-2.8112,-2.8112,-2.8111,0,-2.744,-2.7512,-2.7541,-2.7592,-2.7671,-2.7684,-2.7763,-2.7787,-2.7826,-2.7881,-2.7876,-2.7927,-2.7943,-2.7997,-2.8008,-2.8086,-2.81,-2.8111,-2.8113,-2.8112,-2.811,-2.8132,-2.8125,-2.8116,-2.8115,-2.8114,-2.8113,0,-2.7541,-2.7563,-2.7653,-2.7703,-2.7717,-2.7773,-2.7815,-2.7864,-2.7883,-2.7952,-2.7969,-2.7999,-2.8062,-2.808,-2.8155,-2.8163,-2.8255,-2.825,-2.824,-2.824,-2.8293,-2.8287,-2.8461,-2.8485,-2.8342,-2.8343,-2.8344,0,-2.7615,-2.767,-2.7726,-2.7763,-2.7791,-2.785,-2.7888,-2.7903,-2.7942,-2.7999,-2.8041,-2.8103,-2.8154,-2.8255,-2.8282,-2.834,-2.8337,-2.8394,-2.8345,-2.8342,-2.8338,-2.8334,-2.834,-2.8403,-2.8404,-2.8406,-2.8407,0,-2.7743,-2.7752,-2.7807,-2.7867,-2.7912,-2.796,-2.8005,-2.8035,-2.8056,-2.81,-2.8165,-2.8205,-2.8282,-2.8344,-2.8403,-2.8428,-2.8421,-2.8422,-2.8437,-2.8436,-2.8428,-2.8433,-2.8265,-2.8418,-2.8417,-2.8416,-2.8415,-2.8415,-2.7833,-2.7882,-2.7929,-2.799,-2.8026,-2.8069,-2.8117,-2.8143,-2.8198,-2.8263,-2.8267,-2.8338,-2.8382,-2.846,-2.8489,-2.8543,-2.8526,-2.8549,-2.8555,-2.856,-2.8564,-2.8419,-2.8554,-2.8554,-2.8553,-2.8553,-2.8553,0,-2.7961,-2.7991,-2.8048,-2.8112,-2.8161,-2.8151,-2.82,-2.8241,-2.8304,-2.8346,-2.8397,-2.8471,-2.8531,-2.8563,-2.8623,-2.866,-2.8658,-2.8675,-2.8673,-2.8679,-2.8576,-2.8557,-2.8676,-2.8676,-2.8676,-2.8676,-2.8676,-2.8676,-2.8034,-2.8116,-2.813,-2.8229,-2.8258,-2.8328,-2.8357,-2.8396,-2.843,-2.8514,-2.8564,-2.8585,-2.8624,-2.8686,-2.874,-2.8748,-2.877,-2.8789,-2.8795,-2.8699,-2.8686,-2.8674,-2.8656,-2.8794,-2.8794,-2.8893,-2.8894,-2.8895]}]]